星链-3147 (STARLINK-3147 )

导读

STARLINK-3147是美国太空探索技术公司 SpaceX 星链(Starlink)卫星互联网项目的一颗卫星,于2021年11月13日发射,属于星链部署任务中的组网卫星,旨在为全球提供低延迟、高速率的宽带互联网服务,目前在近地轨道运行,支撑星链星座的服务覆盖能力。

基本信息
目录编号:
49410
目录名称:
STARLINK-3147
国际标识:
2021-104C
轨道中心:
EARTH
卫星名称:
星链-3147
卫星全名:
星链-3147 (STARLINK-3147 )
卫星状态:
在轨 (已飞行1756 天)
发射日期:
2021-11-13 UTC
国别 :
美国 (US)
星等 :
--
轨道信息
数据来源 国际轨道数据 AOE轨道数据
星历时间 2026-09-03T07:57:17+0800
1天前
查看轨道信息
2026-09-03T23:00:00+0800
15小时前
查看轨道信息
半长轴 6848.855km 6848.886km
偏心率 0.0001144 0.0001298
轨道倾角 53.160° 53.158°
近地点辐角 87.607° 68.737°
升交点赤经 142.302° 139.384°
平近点角 272.506° 150.032°
近地点 469.934km 469.86km
远地点 471.502km 471.638km
周期 94.013分钟 94.013分钟
每日圈数 15.317074 15.316973
详细信息
固有亮度:
5
最大亮度:
2.5
卫星平台:
Starlink v1.5
覆盖范围:
全球
运营商:
太空探索技术公司
运营商所在国:
美国
制造商(研发单位):
太空探索技术公司
制造商所在国:
美国
使用方式:
暂无
卫星简介
星链(Starlink)计划是由太空探索技术公司(SpaceX)提出的一个巨型低轨卫星互联网星座项目,计划在2019年至2024年间在太空搭建由约1.2万颗卫星组成的“星链”网络,其中1584颗将部署在地球上空550千米处的近地轨道,并从2020年开始工作。该卫星仍在工作。
2D轨道图
3D轨道图
轨道高度分析图
轨道倾角分析图
轨道综合分析图
查看轨道综合分析图
交会数据列表
事件ID 空间交会对象 最接近时刻(TCA) 交会距离 交会风险概率(CRP) 交会风险指数(CRI) 操作
CDM_260830-164804-941005-802024
NESS (58020)
2026-08-30T
16:48:20+0000
1.662 km
极远距离
4.823738E-6 低风险 0.49
CDM_260903-225004-941006-959921
2026-09-03T
22:50:51+0000
2.056 km
极远距离
2.151497E-6 低风险 0.42
CDM_260903-210704-941005-967924
OBJECT C (59679)
2026-09-03T
21:07:47+0000
2.866 km
极远距离
1.415587E-6 低风险 0.38
CDM_260905-013104-941006-789621
2026-09-05T
01:31:26+0000
2.956 km
极远距离
9.568032E-7 极低风险 0.35
CDM_260905-041904-941006-868121
2026-09-05T
04:19:52+0000
2.942 km
极远距离
8.228813E-7 极低风险 0.33